Regional Weather Roundup
Issued by NWS

Home | Current Version | Previous Version | Text Only | Print | Product List | Glossary Off
Versions: 1 2 3 4 5 6 7 8 9 10 11 12 13 14 15 16 17 18 19 20 21 22 23 24 25 26 27 28 29 30 31 32 33 34 35 36 37 38 39 40 41 42 43 44 45 46 47 48 49

284
ASUS45 KCYS 052310
RWRWY

WYOMING REGIONAL WEATHER ROUNDUP
NATIONAL WEATHER SERVICE CHEYENNE WY
400 PM MST FRI FEB 05 2016

NOTE:  "FAIR" INDICATES FEW OR NO CLOUDS BELOW 12,000 FEET
WITH NO SIGNIFICANT WEATHER AND/OR OBSTRUCTIONS TO VISIBILITY.

WYZ001-060000-
YELLOWSTONE NATIONAL PARK

CITY           SKY/WX    TMP DP  RH WIND       PRES   REMARKS
LK YELLOWSTONE   N/A     19  12  74 VRB5      30.37R WCI  12
W YELLOWSTONE  NOT AVBL

$$
WYZ002>013-054>058-071-098>099-060000-
NORTHERN WYOMING

CITY           SKY/WX    TMP DP  RH WIND       PRES   REMARKS
JACKSON        MOSUNNY   21  16  79 VRB7      30.40S WCI  13
CODY           FAIR      41  14  33 SW20G29   30.18F
GREYBULL       FAIR      36  17  46 S9        30.24F WCI  29
WORLAND        FAIR      36  17  46 SE5       30.24S WCI  32
SHERIDAN       MOSUNNY   41  18  38 SE3       30.16F
BUFFALO        FAIR      32  17  54 S7        30.18S WCI  26
GILLETTE       FAIR      33  19  56 SW12      30.19F WCI  24
HULETT         FAIR      36  19  51 W8        30.18F WCI  29
NEWCASTLE      FAIR      36  19  51 W12       30.22S WCI  27

$$
WYZ014>020-022>026-101>103-060000-
CENTRAL WYOMING

CITY           SKY/WX    TMP DP  RH WIND       PRES   REMARKS
BIG PINEY      FAIR      28  16  60 N16       30.35R WCI  16
PINEDALE       FAIR      27  18  69 NW20      30.34R WCI  13
DUBOIS         MOCLDY    30  14  51 NW21G33   30.26S WCI  17
LANDER         FAIR      31  16  54 NE6       30.22S WCI  25
RIVERTON       FAIR      27  12  53 NE3       30.25S
CASPER         FAIR      23  13  65 SW23G31   30.25F WCI   7
DOUGLAS        FAIR      30  14  51 NW12      30.24F WCI  20

$$
WYZ021-027>030-104>119-060000-
SOUTHERN WYOMING

CITY           SKY/WX    TMP DP  RH WIND       PRES   REMARKS
EVANSTON       CLOUDY    25  18  74 SW14      30.42S WCI  13
FORT BRIDGER   CLEAR     28  21  74 W22       30.43S WCI  15
ROCK SPRINGS   FAIR      25  17  72 W22G32    30.35S WCI  10
DIXON          CLOUDY    25  15  66 SW7       30.45R WCI  17
RAWLINS        FAIR      21  14  74 W30G40    30.29F HAZE    WCI   3
SARATOGA       FAIR      23  12  63 S14       30.35S WCI  11
LARAMIE        FAIR      24  13  62 NE8       30.23R WCI  15
CHEYENNE       FAIR      30  12  47 NW10      30.21F WCI  21
TORRINGTON     FAIR      33  17  51 W12       30.26S WCI  24
PINE BLUFFS    FAIR      28  18  64 NW21G30   30.26S WCI  15

$$




USA.gov is the U.S. government's official web portal to all federal, state and local government web resources and services.